Simultaneous Nadir Overpasses (SNOs) Predictions

Prediction of SNOs between LANDSAT-8 and NOAA-19 Satellite Orbit:

Table of predicted SNOs for the next 14.0 days since TLE Epoch: 3/18/2016
Index Date (LANDSAT-8) Time (LANDSAT-8) Lat,Lon (LANDSAT-8) SZA (LANDSAT-8 ) Date (NOAA-19) Time (NOAA-19) Lat,Lon (NOAA-19) SZA (NOAA-19 ) Distance(km) Time Diff (sec)
1 03/18/2016 19:06:05 -74.57, 77.77 104.96 03/18/2016 19:04:53 -74.65, 76.73 104.89 31.80 72
2 03/18/2016 19:55:35 74.34,-115.13 74.80 03/18/2016 19:55:52 74.35,-115.21 74.81 2.51 17
3 03/21/2016 00:39:50 74.41, 173.95 74.00 03/21/2016 00:38:59 74.39, 173.95 73.98 1.82 51
4 03/21/2016 01:29:19 -74.33, -18.60 106.10 03/21/2016 01:29:55 -74.32, -18.60 106.11 1.14 36
5 03/23/2016 06:13:34 -74.39, -89.53 106.90 03/23/2016 06:13:03 -74.39, -89.51 106.91 0.72 31
6 03/23/2016 07:03:01 74.31, 77.93 73.01 03/23/2016 07:04:06 74.33, 77.87 73.03 2.82 65
7 03/25/2016 11:47:16 74.36, 6.98 72.20 03/25/2016 11:47:13 74.38, 7.01 72.22 2.61 3
8 03/25/2016 12:36:53 -73.88, 173.50 108.32 03/25/2016 12:38:01 -73.88, 175.60 108.29 64.66 68
9 03/27/2016 16:31:30 74.46, -63.86 71.44 03/27/2016 16:30:20 74.44, -63.88 71.42 1.88 70
10 03/27/2016 17:20:59 -74.39, 103.61 108.65 03/27/2016 17:21:18 -74.38, 103.54 108.66 2.33 19
11 03/29/2016 22:05:14 -74.43, 32.63 109.46 03/29/2016 22:04:25 -74.42, 32.71 109.48 2.90 49
12 03/29/2016 22:54:41 74.34,-159.93 70.44 03/29/2016 22:55:26 74.35,-159.88 70.45 1.99 45
13 04/01/2016 03:38:55 74.43, 129.20 69.68 04/01/2016 03:38:33 74.42, 129.21 69.67 0.44 22




NCC Satellite Simultaneous Nadir Overpasses (SNOs) Prediction Service
